Weather Roundup
Issued by NWS Corpus Christi, TX

Home | Current Version | Previous Version | Text Only | Print | Product List | Glossary On
Versions: 1 2 3 4 5 6 7 8 9 10 11 12 13 14 15 16 17 18 19 20 21 22 23 24 25 26 27 28 29 30 31 32 33 34 35 36 37 38 39 40 41 42 43 44 45 46 47 48 49 50
000
ASUS44 KCRP 020110
HRRCRP

SOUTH TEXAS REGIONAL WEATHER ROUNDUP
NATIONAL WEATHER SERVICE CORPUS CHRISTI TX
800 PM CDT TUE SEP 01 2015


TXZ229>244-020200-
...CORPUS CHRISTI AREA OBSERVATIONS...

CITY           SKY/WX    TMP DP  RH WIND       PRES   REMARKS
CORPUS CHRISTI PTCLDY    82  72  71 SE17      29.96R
NAS CORPUS CHR PTCLDY    80  74  81 SE15      29.96R
ROCKPORT       PTCLDY    82  73  74 E15       29.97R
KINGSVILLE NAS PTCLDY    81  76  84 E8        29.96R
ALICE          CLEAR     81  72  74 SE10      29.95R
FALFURRIAS     PTCLDY    82  74  75 E6        29.94S
$$

...VICTORIA AREA OBSERVATIONS...

CITY           SKY/WX    TMP DP  RH WIND       PRES   REMARKS
VICTORIA       CLEAR     79  69  71 SE10      29.99R
BEEVILLE       FAIR      80  73  77 SE9       29.97R
PLEASANTON     CLEAR     83  66  56 SE12G20   29.96R
SAN ANTONIO    PTCLDY    86  65  49 SE17G23   29.97R
$$

...LAREDO AREA OBSERVATIONS...

CITY           SKY/WX    TMP DP  RH WIND       PRES   REMARKS
LAREDO         CLEAR     86  71  60 SE20G29   29.93R HX  91
COTULLA        PTCLDY    87  69  54 SE21G26   29.93R HX  91
DEL RIO        CLEAR     92  59  33 E12       29.89S HX  91
MCALLEN        MOCLDY    84  76  76 SE13      29.93S HX  93
HEBBRONVILLE   NOT AVBL
$$

...OTHER TEXAS OBSERVATIONS...

CITY           SKY/WX    TMP DP  RH WIND       PRES   REMARKS
BROWNSVILLE    PTCLDY    81  75  82 E8        29.94R
HOUSTON        CLOUDY    76  71  85 SE6       30.02S
COL. STATION   CLEAR     81  68  64 SE10      30.01R
AUSTIN         PTCLDY    84  62  47 SE13      29.97R
WACO           CLEAR     87  63  44 SE15      29.97R
FORT WORTH     PTCLDY    89  64  43 SE14      29.97R HX  90
WICHITA FALLS  CLEAR     86  61  42 SE9       29.95S
LUBBOCK        PTCLDY    85  54  34 S8        30.03S
EL PASO        MOCLDY    94  40  15 S3        29.98F HX  90
$$

...MARINE OBSERVATIONS...

STATION/POSITION TIME  SKY/WX   TEMP    WIND        PRES    VSBY  WAVE   SWELL
                                AIR SEA DIR/SP/G                  HT/PER HT/PER
                 (UTC)          (F)     (DEG/KT/KT) (MB)    (MI)  (FT/S) (FT/S)
PORT ARANSAS     0100            81 85  120/ 15/ 17 1015.4R
BUOY 90 E PORT A 0050            81 84  120/ 10/ 12 1014.7F         3/ 6   2/ 6
BUOY 45 SE BAFFI 0050            82 84  120/ 14/ 17 1013.7S         3/ 5
BUOY 200 E PT IS 0050            82 85   80/ 16/ 17 1014.0R         3/ 6
BUOY 15 E GALVES 0050            82 85  110/ 12/ 16 1015.0F         3/ 4
$$


USA.gov is the U.S. government's official web portal to all federal, state and local government web resources and services.